Budapest Ferihegy, Hungary

4:35 AM CEST on October 17, 2017 (GMT +0200)
Ferihegy

Weather History for LHBP - August, 2014

Change the Weather History Date:

Sunday, August 17, 2014

  Actual Average Record
Temperature  
Mean Temperature 62 °F -  
Max Temperature 71 °F 72 °F 89 °F (1998)
Min Temperature 53 °F 52 °F 48 °F (2004)
Degree Days  
Heating Degree Days 3    
Growing Degree Days 12 (Base 50)    
Moisture  
Dew Point 51 °F    
Average Humidity 67    
Maximum Humidity 94    
Minimum Humidity 43    
Precipitation  
Precipitation 0.00 in - - ()
Sea Level Pressure  
Sea Level Pressure 30.01 in    
Wind  
Wind Speed 8 mph ()    
Max Wind Speed 15 mph    
Max Gust Speed -    
Visibility 6.2 miles    
Events      
Averages and records for this station are not official NWS values.
T = Trace of Precipitation, MM = Missing Value Source: Averaged Metar Reports

Daily Weather History Graph

Daily Weather History Graph

Search for Another Location

Airport or City:

Trip Planner

Search our weather history database for the weather conditions in past years. The results will help you decide how hot, cold, wet, or windy it might be!

Date:

Astronomy

Aug. 17, 2014 Rise Set
Actual Time 5:41 AM CEST 7:51 PM CEST
Civil Twilight 5:07 AM CEST 8:25 PM CEST
Nautical Twilight 4:26 AM CEST 9:06 PM CEST
Astronomical Twilight 3:39 AM CEST 9:52 PM CEST
Moon 11:32 PM CEST 1:41 PM CEST
Length of Visible Light 15h 17m
Length of Day
14h 10m
Waning Gibbous, 51% of the Moon is Illuminated
Aug 17
Waning Gibbous
Aug 17
Last Quarter
Aug 25
New
Sep 2
First Quarter
Sep 9
Full

Hourly Weather History & Observations

Time (CEST) Temp. Dew Point Humidity Pressure Visibility Wind Dir Wind Speed Gust Speed Precip Events Conditions
12:00 AM 60.8 °F 53.6 °F 77% 30.01 in - West 10.4 mph - N/A   Clear
12:30 AM 60.8 °F 51.8 °F 72% 30.01 in - West 10.4 mph - N/A   Clear
1:00 AM 59.0 °F 51.8 °F 77% 30.01 in - WNW 9.2 mph - N/A   Clear
1:30 AM 59.0 °F 51.8 °F 77% 30.01 in - West 10.4 mph - N/A   Clear
2:00 AM 59.0 °F 51.8 °F 77% 30.01 in - West 11.5 mph - N/A   Clear
2:30 AM 57.2 °F 51.8 °F 82% 30.01 in - West 11.5 mph - N/A   Clear
3:00 AM 57.2 °F 51.8 °F 82% 30.01 in - West 11.5 mph - N/A   Clear
3:30 AM 57.2 °F 51.8 °F 82% 30.01 in - WNW 8.1 mph - N/A   Clear
4:00 AM 57.2 °F 51.8 °F 82% 30.01 in - WNW 10.4 mph - N/A   Clear
4:30 AM 55.4 °F 51.8 °F 88% 30.01 in - WNW 10.4 mph - N/A   Clear
5:00 AM 55.4 °F 53.6 °F 94% 30.01 in - West 10.4 mph - N/A   Clear
5:30 AM 53.6 °F 51.8 °F 94% 30.01 in - NW 8.1 mph - N/A   Clear
6:00 AM 53.6 °F 51.8 °F 94% 30.01 in - Variable 3.5 mph - N/A   Clear
6:30 AM 55.4 °F 51.8 °F 88% 30.01 in - Variable 3.5 mph - N/A   Clear
7:00 AM 55.4 °F 53.6 °F 94% 30.01 in - Variable 3.5 mph - N/A   Clear
7:30 AM 57.2 °F 53.6 °F 88% 30.04 in - WNW 9.2 mph - N/A   Clear
8:00 AM 60.8 °F 53.6 °F 77% 30.04 in - NW 9.2 mph - N/A   Clear
8:30 AM 62.6 °F 53.6 °F 72% 30.04 in - WNW 10.4 mph - N/A   Clear
9:00 AM 62.6 °F 53.6 °F 72% 30.04 in - NW 8.1 mph - N/A   Clear
9:30 AM 64.4 °F 55.4 °F 73% 30.04 in - WNW 8.1 mph - N/A   Clear
10:00 AM 64.4 °F 51.8 °F 64% 30.04 in - West 6.9 mph - N/A   Clear
10:30 AM 66.2 °F 50.0 °F 56% 30.04 in 6.2 mi West 6.9 mph - N/A   Partly Cloudy
11:00 AM 68.0 °F 51.8 °F 56% 30.04 in 6.2 mi WNW 8.1 mph - N/A   Partly Cloudy
11:30 AM 68.0 °F 51.8 °F 56% 30.04 in 6.2 mi WNW 10.4 mph - N/A   Partly Cloudy
12:00 PM 69.8 °F 53.6 °F 56% 30.04 in 6.2 mi WNW 9.2 mph - N/A   Partly Cloudy
12:30 PM 69.8 °F 51.8 °F 53% 30.04 in 6.2 mi West 9.2 mph - N/A   Partly Cloudy
1:00 PM 71.6 °F 50.0 °F 46% 30.04 in 6.2 mi West 12.7 mph - N/A   Partly Cloudy
1:30 PM 69.8 °F 50.0 °F 49% 30.01 in 6.2 mi West 12.7 mph - N/A   Partly Cloudy
2:00 PM 71.6 °F 53.6 °F 53% 30.01 in 6.2 mi West 12.7 mph - N/A   Partly Cloudy
2:30 PM 71.6 °F 51.8 °F 50% 30.01 in 6.2 mi West 12.7 mph - N/A   Partly Cloudy
3:00 PM 71.6 °F 50.0 °F 46% 30.01 in 6.2 mi West 15.0 mph - N/A   Partly Cloudy
3:30 PM 71.6 °F 48.2 °F 43% 29.98 in 6.2 mi WNW 12.7 mph - N/A   Partly Cloudy
4:00 PM 69.8 °F 48.2 °F 46% 29.98 in - WNW 9.2 mph - N/A   Clear
4:30 PM 71.6 °F 48.2 °F 43% 29.98 in - NW 11.5 mph - N/A   Clear
5:00 PM 71.6 °F 50.0 °F 46% 29.98 in - West 13.8 mph - N/A   Clear
5:30 PM 71.6 °F 48.2 °F 43% 29.98 in - West 11.5 mph - N/A   Clear
6:00 PM 71.6 °F 48.2 °F 43% 29.98 in - West 12.7 mph - N/A   Clear
6:30 PM 69.8 °F 48.2 °F 46% 29.98 in - WNW 11.5 mph - N/A   Clear
7:00 PM 68.0 °F 50.0 °F 52% 29.98 in - WNW 9.2 mph - N/A   Clear
7:30 PM 66.2 °F 50.0 °F 56% 29.98 in - WNW 8.1 mph - N/A   Clear
8:00 PM 64.4 °F 50.0 °F 59% 29.98 in - WNW 8.1 mph - N/A   Clear
8:30 PM 64.4 °F 50.0 °F 59% 29.98 in - WNW 4.6 mph - N/A   Clear
9:00 PM 60.8 °F 50.0 °F 68% 29.98 in - WSW 4.6 mph - N/A   Clear
9:30 PM 60.8 °F 51.8 °F 72% 29.98 in - Variable 3.5 mph - N/A   Clear
10:00 PM 59.0 °F 50.0 °F 72% 29.98 in - Variable 1.2 mph - N/A   Clear
10:30 PM 57.2 °F 50.0 °F 77% 29.98 in - Variable 1.2 mph - N/A   Clear
11:00 PM 57.2 °F 51.8 °F 82% 29.98 in - Variable 1.2 mph - N/A   Clear
11:30 PM 53.6 °F 51.8 °F 94% 29.98 in - Variable 3.5 mph - N/A   Clear